Torna al catalogo

ATLAS 5 CENTAUR DEB

LostHEO
NORAD 49356·DEBRIS·🇺🇸 United States

Lanciato Oct 17, 2018 da Cape Canaveral Space Force Station

Loading…

Prossimi Passaggi (prossime 24 ore)

TLE

ObsoletoSource: Space-Track

Epoca: Jul 5, 2026, 22:24 UTC

1 49356U 18079FH  26186.93387276 -.00000087  00000-0  00000-0 0  9996
2 49356  13.3306  43.1229 4646391 296.6417  23.4066  1.78475867 31620

Traccia ATLAS 5 CENTAUR DEB in tempo reale con AllMySat

Download on the App Store